Regional Weather Roundup
Issued by NWS Mt. Holly, NJ

Home | Current Version | Previous Version | Text Only | Print | Product List | Glossary On
Versions: 1 2 3 4 5 6 7 8 9 10 11 12 13 14 15 16 17 18 19 20 21 22 23 24 25 26 27 28 29 30 31 32 33 34 35 36 37 38 39 40 41 42 43 44 45 46 47 48 49 50
000
ASUS41 KPHI 311610
RWRPHI

REGIONAL WEATHER ROUNDUP
NATIONAL WEATHER SERVICE MOUNT HOLLY NJ
1200 PM EDT THU JUL 31 2014

NOTE:  "FAIR" INDICATES FEW OR NO CLOUDS BELOW 12,000 FEET WITH NO
SIGNIFICANT WEATHER AND/OR OBSTRUCTIONS TO VISIBILITY.

 * = STATION DOES NOT REPORT PRECIPITATION (E.G. RAIN, SNOW, ETC.)
        OR FOG.

NJZ015>026-311700-
SOUTHERN NEW JERSEY

CITY           SKY/WX    TMP DP  RH WIND       PRES   REMARKS
POMONA         SUNNY     81  59  47 SW12G17   30.11F
RIO GRANDE*    MOSUNNY   81  63  54 SW12      30.14S
MILLVILLE      MOSUNNY   80  63  55 SW8       30.11F
WRIGHTSTOWN    MOSUNNY   81  62  53 S10       30.08F
MOUNT HOLLY    PTSUNNY   79  59  50 SW8G17    30.10S
TRENTON        MOSUNNY   80  60  50 SW12G18   30.10S

$$
NJZ001>014-311700-
NORTHERN NEW JERSEY

CITY           SKY/WX    TMP DP  RH WIND       PRES   REMARKS
SUSSEX         SUNNY     79  60  52 SW9       30.09S
ANDOVER*         N/A     75  58  55 SW9       30.10S
MORRISTOWN     MOSUNNY   79  61  53 SW8G17    30.10S
NEWARK         MOSUNNY   79  59  50 SW12      30.09F
TETERBORO      PTSUNNY   82  58  43 S15       30.08F
CALDWELL       SUNNY     77  59  53 VRB5      30.10F
SOMERVILLE     SUNNY     78  61  55 SW5       30.08S
ALLAIRE*       MOSUNNY   79  57  47 W9        30.11S
TOMS RIVER*    MOSUNNY   82  57  42 SW8       30.11S

$$
PAZ043-044-047-054-055-060>062-066>071-311700-
EASTERN PENNSYLVANIA

CITY           SKY/WX    TMP DP  RH WIND       PRES   REMARKS
PHILADELPHIA   MOSUNNY   81  61  50 SW14      30.10F
NORTH PHILA    PTSUNNY   81  60  48 S10G20    30.11F
BLUE BELL      MOSUNNY   81  63  54 S6        30.10S
DOYLESTOWN     MOSUNNY   76  60  57 S8        30.10S
QUAKERTOWN*    MOSUNNY   75  61  60 SW6       30.11F
POTTSTOWN      MOSUNNY   77  59  53 S9        30.12S
LANCASTER      MOSUNNY   76  61  59 W8        30.10S
COATESVILLE    SUNNY     75  61  60 CALM      30.13S
READING        MOSUNNY   79  62  56 MISG      30.09S
ALLENTOWN      MOSUNNY   78  59  51 S10       30.09F
MOUNT POCONO   SUNNY     71  54  54 W14       30.13S
HAZLETON       PTSUNNY   72  57  60 S5        30.15S
WILKES BARRE   MOSUNNY   76  57  51 W15       30.09S

$$
DEZALL-MDZ008-012-015-019-020-311700-
DELAWARE AND EASTERN MARYLAND

CITY           SKY/WX    TMP DP  RH WIND       PRES   REMARKS
WILMINGTON     MOSUNNY   80  64  58 SW9       30.11S
DOVER          MOSUNNY   80  65  60 S14G28    30.11S
GEORGETOWN     SUNNY     82  64  54 S14       30.13F
EASTON         MOSUNNY   81  64  57 W9        30.16S
PATUXENT       MOSUNNY   82  60  47 SW6       30.12F
OCEAN CITY     PTSUNNY   80  65  59 SW7       30.13F
WALLOPS ISLAND MOSUNNY   83  63  50 W10       30.14F
CAMBRIDGE      SUNNY     81  61  50 S9        30.12S
SALISBURY      MOSUNNY   85  63  47 W7G21     30.12F

$$
PAZ001-021-NYZ056-072-MDZ011-DCZ001-311700-
OTHER NEARBY LOCATIONS

CITY           SKY/WX    TMP DP  RH WIND       PRES   REMARKS
HARRISBURG     MOSUNNY   77  63  61 NW8       30.09S
STATE COLLEGE  CLOUDY    68  61  77 SW10      30.12S
WILLIAMSPORT   CLOUDY    66  59  78 SE8       30.10R
BINGHAMTON     PTSUNNY   67  58  72 SW9       30.09S
NEW YORK CITY  SUNNY     78  58  49 VRB6      30.12F
BALTIMORE      MOSUNNY   81  58  45 VRB6      30.10S
WASHINGTON DC  MOSUNNY   83  63  50 S10       30.11S

$$


USA.gov is the U.S. government's official web portal to all federal, state and local government web resources and services.